• In Romania
  • List of Countries
  • For 7 days
  • Water Temperature
  • Satellite Maps
  • Weather Map
  • Weather Widgets
  • user-avatar
    Login

    Hourly Weather Linz

    Today, 23 September, Saturday

    Time Temperature Precipitation Wind Pressure Humidity
    00:00 +10°C° 0 mm 1 mps 738 mmHg 90%
    01:00 +10°C° 0 mm 1 mps 738 mmHg 90%
    02:00 +9°C° 0 mm 1 mps 738 mmHg 91%
    03:00 +9°C° 0 mm 1 mps 738 mmHg 91%
    04:00 +9°C° 0 mm 1 mps 738 mmHg 91%
    05:00 +9°C° 0 mm 1 mps 738 mmHg 91%
    06:00 +10°C° 0 mm 1 mps 738 mmHg 90%
    07:00 +10°C° 0 mm 1 mps 738 mmHg 89%
    08:00 +12°C° 0 mm 1 mps 738 mmHg 81%
    09:00 +15°C° 0 mm 1 mps 737 mmHg 74%
    10:00 +18°C° 0 mm 1 mps 737 mmHg 66%
    11:00 +18°C° 0 mm 2 mps 737 mmHg 63%
    12:00 +19°C° 0 mm 2 mps 737 mmHg 59%
    13:00 +19°C° 0 mm 2 mps 736 mmHg 56%
    14:00 +19°C° 0 mm 2 mps 736 mmHg 59%
    15:00 +19°C° 0 mm 2 mps 736 mmHg 61%
    16:00 +19°C° 0 mm 2 mps 736 mmHg 64%
    17:00 +18°C° 0 mm 1 mps 736 mmHg 71%
    18:00 +15°C° 0 mm 1 mps 736 mmHg 79%
    19:00 +13°C° 0 mm 1 mps 736 mmHg 86%
    20:00 +12°C° 0 mm 1 mps 736 mmHg 88%
    21:00 +12°C° 0 mm 1 mps 736 mmHg 90%
    22:00 +11°C° 0 mm 1 mps 737 mmHg 91%
    23:00 +11°C° 0 mm 1 mps 736 mmHg 92%

    Tomorrow, 24 September, Sunday

    Time Temperature Precipitation Wind Pressure Humidity
    00:00 +11°C° 0 mm 1 mps 736 mmHg 93%
    01:00 +10°C° 0 mm 1 mps 736 mmHg 94%
    02:00 +10°C° 0 mm 1 mps 736 mmHg 94%
    03:00 +10°C° 0 mm 1 mps 736 mmHg 94%
    04:00 +10°C° 0 mm 1 mps 736 mmHg 94%
    05:00 +10°C° 0 mm 1 mps 736 mmHg 93%
    06:00 +10°C° 0 mm 1 mps 736 mmHg 92%
    07:00 +11°C° 0 mm 1 mps 737 mmHg 91%
    08:00 +13°C° 0 mm 1 mps 737 mmHg 84%
    09:00 +15°C° 0 mm 1 mps 737 mmHg 77%
    10:00 +18°C° 0 mm 1 mps 737 mmHg 70%
    11:00 +18°C° 0.1 mm 1 mps 737 mmHg 67%
    12:00 +19°C° 0.1 mm 1 mps 736 mmHg 65%
    13:00 +20°C° 0.1 mm 1 mps 736 mmHg 62%
    14:00 +19°C° 0.1 mm 1 mps 736 mmHg 63%
    15:00 +19°C° 0.1 mm 1 mps 736 mmHg 64%
    16:00 +19°C° 0.1 mm 1 mps 736 mmHg 65%
    17:00 +16°C° 0.1 mm 1 mps 736 mmHg 73%
    18:00 +14°C° 0.1 mm 1 mps 736 mmHg 80%
    19:00 +13°C° 0.1 mm 1 mps 737 mmHg 87%
    20:00 +12°C° 0 mm 1 mps 737 mmHg 89%
    21:00 +12°C° 0 mm 1 mps 737 mmHg 91%
    22:00 +11°C° 0 mm 1 mps 737 mmHg 93%
    23:00 +11°C° 0 mm 1 mps 737 mmHg 93%

    Day after tomorrow, 25 September, Monday

    Time Temperature Precipitation Wind Pressure Humidity
    00:00 +10°C° 0 mm 1 mps 737 mmHg 94%
    01:00 +10°C° 0 mm 1 mps 737 mmHg 94%
    02:00 +10°C° 0 mm 1 mps 737 mmHg 94%
    03:00 +10°C° 0 mm 1 mps 736 mmHg 94%
    04:00 +9°C° 0 mm 1 mps 736 mmHg 94%
    05:00 +10°C° 0 mm 1 mps 736 mmHg 93%
    06:00 +10°C° 0 mm 1 mps 736 mmHg 92%
    07:00 +10°C° 0 mm 0 mps 736 mmHg 91%
    08:00 +13°C° 0 mm 1 mps 736 mmHg 84%
    09:00 +15°C° 0 mm 1 mps 736 mmHg 76%
    10:00 +18°C° 0 mm 1 mps 737 mmHg 68%
    11:00 +18°C° 0 mm 2 mps 736 mmHg 65%
    12:00 +19°C° 0 mm 2 mps 736 mmHg 62%
    13:00 +19°C° 0 mm 2 mps 736 mmHg 59%
    14:00 +19°C° 0.1 mm 2 mps 736 mmHg 61%
    15:00 +19°C° 0.1 mm 2 mps 736 mmHg 64%
    16:00 +19°C° 0.1 mm 2 mps 736 mmHg 67%
    17:00 +17°C° 0 mm 2 mps 736 mmHg 74%
    18:00 +15°C° 0 mm 2 mps 736 mmHg 81%
    19:00 +13°C° 0 mm 2 mps 736 mmHg 88%
    20:00 +13°C° 0 mm 2 mps 736 mmHg 90%
    21:00 +12°C° 0 mm 2 mps 737 mmHg 92%
    22:00 +12°C° 0 mm 2 mps 737 mmHg 93%
    23:00 +10°C° 0 mm 2 mps 737 mmHg 93%

    26 September, Tuesday

    Time Temperature Precipitation Wind Pressure Humidity
    00:00 +11°C° 0 mm 1 mps 737 mmHg 93%
    01:00 +11°C° 0 mm 1 mps 737 mmHg 93%
    02:00 +11°C° 0 mm 1 mps 737 mmHg 93%
    03:00 +10°C° 0 mm 1 mps 737 mmHg 93%
    04:00 +10°C° 0 mm 1 mps 736 mmHg 93%
    05:00 +10°C° 0 mm 1 mps 737 mmHg 93%
    06:00 +11°C° 0 mm 1 mps 737 mmHg 92%
    07:00 +11°C° 0 mm 1 mps 737 mmHg 91%
    08:00 +13°C° 0 mm 1 mps 737 mmHg 83%
    09:00 +15°C° 0 mm 1 mps 737 mmHg 75%
    10:00 +17°C° 0 mm 2 mps 737 mmHg 66%
    11:00 +18°C° 0 mm 2 mps 737 mmHg 64%
    12:00 +19°C° 0 mm 2 mps 736 mmHg 62%
    13:00 +20°C° 0 mm 3 mps 736 mmHg 60%
    14:00 +20°C° 0 mm 3 mps 736 mmHg 63%
    15:00 +20°C° 0 mm 3 mps 736 mmHg 66%
    16:00 +20°C° 0 mm 3 mps 736 mmHg 69%
    17:00 +18°C° 0 mm 2 mps 736 mmHg 76%
    18:00 +16°C° 0 mm 2 mps 736 mmHg 84%
    19:00 +14°C° 0 mm 2 mps 737 mmHg 91%
    20:00 +14°C° 0 mm 2 mps 737 mmHg 92%
    21:00 +13°C° 0 mm 2 mps 737 mmHg 92%
    22:00 +13°C° 0 mm 2 mps 737 mmHg 93%
    23:00 +12°C° 0 mm 2 mps 737 mmHg 93%

    27 September, Wednesday

    Time Temperature Precipitation Wind Pressure Humidity
    00:00 +12°C° 0 mm 2 mps 737 mmHg 92%
    01:00 +12°C° 0 mm 1 mps 737 mmHg 92%
    02:00 +12°C° 0 mm 1 mps 737 mmHg 92%
    03:00 +11°C° 0 mm 1 mps 737 mmHg 92%
    04:00 +11°C° 0 mm 1 mps 737 mmHg 92%
    05:00 +12°C° 0 mm 1 mps 738 mmHg 91%
    06:00 +12°C° 0 mm 1 mps 738 mmHg 90%
    07:00 +12°C° 0 mm 1 mps 738 mmHg 90%
    08:00 +15°C° 0 mm 1 mps 738 mmHg 81%
    09:00 +18°C° 0 mm 1 mps 738 mmHg 73%
    10:00 +19°C° 0 mm 2 mps 738 mmHg 65%
    11:00 +20°C° 0.1 mm 2 mps 738 mmHg 62%
    12:00 +21°C° 0.1 mm 2 mps 738 mmHg 60%
    13:00 +22°C° 0.1 mm 3 mps 738 mmHg 57%
    14:00 +23°C° 0.2 mm 2 mps 738 mmHg 61%
    15:00 +21°C° 0.2 mm 2 mps 738 mmHg 64%
    16:00 +21°C° 0.2 mm 2 mps 738 mmHg 68%
    17:00 +19°C° 0 mm 2 mps 738 mmHg 74%
    18:00 +17°C° 0 mm 2 mps 738 mmHg 80%
    19:00 +15°C° 0 mm 2 mps 738 mmHg 86%
    20:00 +15°C° 0 mm 2 mps 738 mmHg 88%
    21:00 +14°C° 0 mm 2 mps 738 mmHg 89%
    22:00 +13°C° 0 mm 2 mps 738 mmHg 91%
    23:00 +13°C° 0 mm 2 mps 739 mmHg 91%

    28 September, Thursday

    Time Temperature Precipitation Wind Pressure Humidity
    00:00 +13°C° 0 mm 1 mps 739 mmHg 92%
    01:00 +12°C° 0 mm 1 mps 739 mmHg 92%
    02:00 +12°C° 0 mm 1 mps 739 mmHg 92%
    03:00 +12°C° 0 mm 1 mps 739 mmHg 92%
    04:00 +12°C° 0 mm 1 mps 739 mmHg 92%
    05:00 +12°C° 0 mm 1 mps 739 mmHg 91%
    06:00 +12°C° 0 mm 1 mps 739 mmHg 90%
    07:00 +12°C° 0 mm 1 mps 740 mmHg 89%
    08:00 +15°C° 0 mm 1 mps 740 mmHg 81%
    09:00 +18°C° 0 mm 1 mps 740 mmHg 73%
    10:00 +20°C° 0 mm 1 mps 740 mmHg 65%
    11:00 +21°C° 0.1 mm 1 mps 740 mmHg 63%
    12:00 +20°C° 0.1 mm 2 mps 740 mmHg 61%
    13:00 +21°C° 0.1 mm 2 mps 739 mmHg 58%
    14:00 +21°C° 0.1 mm 2 mps 739 mmHg 61%
    15:00 +21°C° 0.1 mm 2 mps 739 mmHg 64%
    16:00 +20°C° 0.1 mm 2 mps 739 mmHg 67%
    17:00 +18°C° 0 mm 2 mps 739 mmHg 73%
    18:00 +17°C° 0 mm 2 mps 740 mmHg 79%
    19:00 +15°C° 0 mm 2 mps 740 mmHg 85%
    20:00 +14°C° 0 mm 2 mps 740 mmHg 86%
    21:00 +13°C° 0 mm 2 mps 740 mmHg 87%
    22:00 +13°C° 0 mm 2 mps 740 mmHg 89%
    23:00 +12°C° 0 mm 1 mps 740 mmHg 89%
    Show more